TimeCST,TemperatureF,Dew PointF,Humidity,Sea Level PressureIn,VisibilityMPH,Wind Direction,Wind SpeedMPH,Gust SpeedMPH,PrecipitationIn,Events,Conditions,WindDirDegrees,DateUTC
12:15 AM,36.7,34.3,91,29.73,7.0,West,10.4,-,N/A,,Overcast,280,2012-12-10 06:15:00
12:35 AM,36.5,34.9,94,29.73,7.0,West,17.3,25.3,N/A,,Overcast,270,2012-12-10 06:35:00
12:55 AM,34.7,33.8,97,29.72,7.0,West,18.4,25.3,N/A,,Overcast,260,2012-12-10 06:55:00
1:15 AM,33.3,32.5,97,29.74,5.0,West,18.4,24.2,N/A,,Overcast,270,2012-12-10 07:15:00
1:35 AM,32.0,32.0,100,29.74,7.0,West,18.4,24.2,N/A,,Overcast,270,2012-12-10 07:35:00
1:55 AM,32.0,30.0,92,29.75,10.0,West,19.6,24.2,N/A,,Overcast,270,2012-12-10 07:55:00
2:15 AM,31.1,29.1,92,29.75,10.0,West,16.1,25.3,N/A,,Overcast,270,2012-12-10 08:15:00
2:35 AM,31.1,28.4,90,29.75,10.0,West,12.7,25.3,N/A,,Overcast,280,2012-12-10 08:35:00
2:55 AM,30.9,28.4,90,29.76,10.0,West,15.0,24.2,N/A,,Overcast,280,2012-12-10 08:55:00
3:15 AM,30.6,27.5,88,29.76,10.0,West,15.0,25.3,N/A,,Overcast,270,2012-12-10 09:15:00
3:35 AM,30.0,27.3,90,29.75,10.0,West,18.4,24.2,N/A,,Overcast,280,2012-12-10 09:35:00
3:55 AM,29.7,27.1,90,29.75,10.0,West,16.1,23.0,N/A,,Overcast,280,2012-12-10 09:55:00
4:15 AM,29.3,26.6,90,29.74,10.0,West,17.3,23.0,N/A,,Overcast,280,2012-12-10 10:15:00
4:35 AM,29.1,26.4,90,29.75,10.0,WNW,16.1,-,N/A,,Overcast,290,2012-12-10 10:35:00
4:55 AM,29.1,26.6,90,29.75,10.0,West,17.3,21.9,N/A,,Overcast,280,2012-12-10 10:55:00
5:15 AM,28.9,26.8,92,29.75,10.0,WNW,15.0,24.2,N/A,,Overcast,290,2012-12-10 11:15:00
5:35 AM,28.4,26.6,93,29.76,7.0,West,12.7,-,N/A,,Overcast,280,2012-12-10 11:35:00
5:55 AM,28.9,27.0,92,29.76,7.0,WNW,16.1,20.7,N/A,,Overcast,300,2012-12-10 11:55:00
6:15 AM,28.6,26.8,93,29.76,7.0,WNW,19.6,-,N/A,,Overcast,290,2012-12-10 12:15:00
6:35 AM,28.6,27.1,94,29.77,7.0,West,11.5,-,N/A,,Overcast,280,2012-12-10 12:35:00
6:55 AM,28.8,27.5,95,29.78,7.0,WNW,13.8,18.4,N/A,,Overcast,300,2012-12-10 12:55:00
7:15 AM,28.9,27.5,94,29.78,7.0,West,11.5,-,N/A,,Overcast,270,2012-12-10 13:15:00
7:35 AM,28.8,27.5,95,29.78,5.0,West,12.7,18.4,N/A,,Overcast,280,2012-12-10 13:35:00
7:55 AM,28.6,27.7,96,29.77,5.0,WNW,13.8,-,N/A,,Overcast,290,2012-12-10 13:55:00
8:15 AM,28.8,27.9,96,29.78,5.0,WNW,12.7,-,N/A,,Overcast,290,2012-12-10 14:15:00
8:35 AM,28.8,27.5,95,29.79,5.0,WNW,13.8,-,N/A,,Overcast,290,2012-12-10 14:35:00
8:55 AM,29.1,28.2,96,29.80,5.0,WNW,13.8,-,N/A,,Overcast,290,2012-12-10 14:55:00
9:15 AM,29.1,28.0,96,29.81,5.0,West,11.5,-,N/A,,Overcast,280,2012-12-10 15:15:00
9:35 AM,29.3,28.4,96,29.81,5.0,West,9.2,-,N/A,,Overcast,280,2012-12-10 15:35:00
9:55 AM,29.7,28.9,97,29.82,4.0,WNW,10.4,-,N/A,,Overcast,290,2012-12-10 15:55:00
10:15 AM,29.7,29.1,98,29.82,3.0,WNW,12.7,-,N/A,,Overcast,300,2012-12-10 16:15:00
10:35 AM,30.0,29.7,99,29.82,2.5,West,10.4,-,N/A,,Overcast,280,2012-12-10 16:35:00
10:55 AM,30.0,29.8,99,29.81,2.0,West,12.7,-,N/A,,Overcast,280,2012-12-10 16:55:00
11:15 AM,30.2,30.0,99,29.81,3.0,West,12.7,-,N/A,,Overcast,280,2012-12-10 17:15:00
11:35 AM,30.7,30.2,98,29.80,4.0,WNW,10.4,-,N/A,,Overcast,290,2012-12-10 17:35:00
11:55 AM,31.1,30.2,96,29.79,4.0,West,12.7,-,N/A,,Overcast,280,2012-12-10 17:55:00
12:15 PM,31.5,30.6,96,29.79,5.0,WNW,9.2,-,N/A,,Overcast,290,2012-12-10 18:15:00
12:35 PM,31.6,30.6,96,29.79,5.0,WNW,13.8,-,N/A,,Overcast,290,2012-12-10 18:35:00
12:55 PM,32.0,31.1,96,29.79,5.0,WNW,10.4,-,N/A,,Overcast,290,2012-12-10 18:55:00
1:15 PM,32.0,31.1,96,29.79,5.0,WNW,13.8,-,N/A,,Overcast,300,2012-12-10 19:15:00
1:35 PM,32.2,31.6,98,29.79,7.0,WNW,10.4,-,N/A,,Overcast,300,2012-12-10 19:35:00
1:55 PM,32.4,31.5,96,29.78,7.0,WNW,10.4,-,N/A,,Overcast,290,2012-12-10 19:55:00
2:15 PM,32.5,31.8,97,29.79,7.0,West,9.2,-,N/A,,Overcast,280,2012-12-10 20:15:00
2:35 PM,32.9,31.8,96,29.80,7.0,West,8.1,-,N/A,,Overcast,270,2012-12-10 20:35:00
2:55 PM,32.4,31.8,98,29.80,5.0,West,11.5,-,N/A,Rain,Rain,270,2012-12-10 20:55:00
3:15 PM,32.2,31.1,96,29.81,7.0,WNW,11.5,-,N/A,,Overcast,290,2012-12-10 21:15:00
3:35 PM,32.0,31.1,96,29.83,5.0,West,9.2,-,N/A,Rain,Rain,280,2012-12-10 21:35:00
3:55 PM,32.0,31.1,96,29.83,7.0,West,8.1,-,N/A,,Overcast,280,2012-12-10 21:55:00
4:15 PM,32.0,31.1,96,29.84,7.0,West,9.2,-,N/A,,Overcast,280,2012-12-10 22:15:00
4:35 PM,32.0,28.0,85,29.84,10.0,NNW,13.8,-,N/A,,Overcast,340,2012-12-10 22:35:00
4:55 PM,32.0,27.5,83,29.85,10.0,North,9.2,16.1,N/A,,Overcast,350,2012-12-10 22:55:00
5:15 PM,31.3,26.4,82,29.86,10.0,North,12.7,18.4,N/A,,Overcast,360,2012-12-10 23:15:00
5:35 PM,30.7,25.5,81,29.87,10.0,NNW,9.2,-,N/A,,Overcast,340,2012-12-10 23:35:00
5:55 PM,30.6,25.2,80,29.88,10.0,NNW,9.2,-,N/A,,Overcast,340,2012-12-10 23:55:00
6:15 PM,30.7,24.8,79,29.89,10.0,NNW,9.2,-,N/A,,Overcast,340,2012-12-11 00:15:00
6:35 PM,30.7,24.3,77,29.90,10.0,North,8.1,-,N/A,,Overcast,350,2012-12-11 00:35:00
6:55 PM,30.2,23.9,77,29.90,10.0,NNW,6.9,-,N/A,,Overcast,340,2012-12-11 00:55:00
7:15 PM,30.2,24.1,78,29.91,10.0,NW,5.8,-,N/A,,Overcast,320,2012-12-11 01:15:00
7:35 PM,29.7,23.5,78,29.91,10.0,NNW,4.6,-,N/A,,Overcast,340,2012-12-11 01:35:00
7:55 PM,29.1,23.5,80,29.91,10.0,NNW,3.5,-,N/A,,Overcast,330,2012-12-11 01:55:00
8:15 PM,29.1,23.4,79,29.91,10.0,NNW,5.8,-,N/A,,Mostly Cloudy,330,2012-12-11 02:15:00
8:35 PM,29.8,23.7,78,29.92,10.0,NNW,6.9,-,N/A,,Mostly Cloudy,330,2012-12-11 02:35:00
8:55 PM,30.0,23.9,78,29.93,10.0,NW,6.9,-,N/A,,Overcast,310,2012-12-11 02:55:00
9:15 PM,30.0,23.2,76,29.93,10.0,NW,4.6,-,N/A,,Overcast,320,2012-12-11 03:15:00
9:35 PM,29.8,24.1,79,29.94,10.0,WNW,5.8,-,N/A,,Overcast,290,2012-12-11 03:35:00
9:55 PM,29.3,25.5,86,29.95,10.0,West,6.9,-,N/A,,Overcast,260,2012-12-11 03:55:00
10:15 PM,29.7,26.1,86,29.94,10.0,West,4.6,-,N/A,,Overcast,270,2012-12-11 04:15:00
10:35 PM,28.8,26.2,90,29.95,10.0,West,5.8,-,N/A,,Overcast,260,2012-12-11 04:35:00
10:55 PM,29.5,26.6,89,29.94,10.0,West,5.8,-,N/A,,Overcast,280,2012-12-11 04:55:00
11:15 PM,29.3,27.3,92,29.95,10.0,WSW,6.9,-,N/A,,Overcast,250,2012-12-11 05:15:00
11:35 PM,30.2,28.4,93,29.95,7.0,West,6.9,-,N/A,,Overcast,280,2012-12-11 05:35:00
11:55 PM,29.7,28.4,95,29.95,7.0,West,8.1,-,N/A,,Overcast,270,2012-12-11 05:55:00